This is the latest recevied weather packets stored in our database for station/object W4TJP. If no packets are shown the sender has not sent any weather packets the latest 10 day(s).
| Time | Temp. | Humidity | Pressure | Rain* | Wind** | Luminosity | Snow |
|---|---|---|---|---|---|---|---|
| 1777997069 | 20° C | 65% | 1014.3 hPa | 0 mm | - | 299 W/m² | - |
| 1777996764 | 20° C | 65% | 1014.1 hPa | 0 mm | - | 250 W/m² | - |
| 1777996461 | 20° C | 62% | 1014 hPa | 0 mm | - | 233 W/m² | - |
| 1777996158 | 20° C | 67% | 1014 hPa | 0 mm | - | 274 W/m² | - |
| 1777995854 | 19.44° C | 65% | 1013.9 hPa | 0 mm | - | 252 W/m² | - |
| 1777995550 | 19.44° C | 65% | 1014.2 hPa | 0 mm | - | 205 W/m² | - |
| 1777995248 | 19.44° C | 65% | 1014.2 hPa | 0 mm | - | 209 W/m² | - |
| 1777994945 | 19.44° C | 66% | 1013.9 hPa | 0 mm | - | 217 W/m² | - |
| 1777994642 | 19.44° C | 66% | 1014.3 hPa | 0 mm | - | 204 W/m² | - |
| 1777994341 | 18.89° C | 67% | 1014.1 hPa | 0 mm | - | 194 W/m² | - |
| 1777994038 | 18.89° C | 65% | 1014.1 hPa | 0 mm | - | 173 W/m² | - |
| 1777993735 | 19.44° C | 65% | 1014.1 hPa | 0 mm | - | 182 W/m² | - |
| 1777993433 | 19.44° C | 64% | 1014 hPa | 0 mm | - | 229 W/m² | - |
| 1777993133 | 19.44° C | 65% | 1013.9 hPa | 0 mm | - | 318 W/m² | - |
| 1777992831 | 19.44° C | 65% | 1013.8 hPa | 0 mm | - | 314 W/m² | - |
| 1777992528 | 19.44° C | 65% | 1013.4 hPa | 0 mm | - | 275 W/m² | - |
| 1777992227 | 19.44° C | 67% | 1013.6 hPa | 0 mm | - | 303 W/m² | - |
| 1777991924 | 19.44° C | 64% | 1013.4 hPa | 0 mm | - | 257 W/m² | - |
| 1777991621 | 18.89° C | 65% | 1013.5 hPa | 0 mm | - | 288 W/m² | - |
| 1777991318 | 18.89° C | 66% | 1013.3 hPa | 0 mm | - | 262 W/m² | - |
| 1777991015 | 18.89° C | 67% | 1013.5 hPa | 0 mm | - | 217 W/m² | - |
| 1777990713 | 18.89° C | 65% | 1013.4 hPa | 0 mm | - | 216 W/m² | - |
| 1777990410 | 18.33° C | 67% | 1013.4 hPa | 0 mm | - | 209 W/m² | - |
| 1777989802 | 18.33° C | 66% | 1013.6 hPa | 0 mm | - | 202 W/m² | - |
| 1777989500 | 18.33° C | 66% | 1013.3 hPa | 0 mm | - | 223 W/m² | - |
* Rain latest hour (hover to see other rain measurements)
** Current wind speed in m/s (hover to see current wind gust speed)